owner,sensor,date,latitude,longitude,vertical_datum,sea_water_temperature,qcFlag 
COMPS,ioos:station:USF.COMPS:C10:1,2013-11-11T19:05:00Z,27.1690,-82.9260,-1.0,24.192,2 
COMPS,ioos:station:USF.COMPS:C10:1,2013-11-11T19:35:00Z,27.1690,-82.9260,-1.0,24.258,2 
COMPS,ioos:station:USF.COMPS:C10:1,2013-11-11T20:05:00Z,27.1690,-82.9260,-1.0,24.242,2 
COMPS,ioos:station:USF.COMPS:C10:1,2013-11-11T20:35:00Z,27.1690,-82.9260,-1.0,24.235,2 
COMPS,ioos:station:USF.COMPS:C10:1,2013-11-11T21:05:00Z,27.1690,-82.9260,-1.0,24.239,2 
COMPS,ioos:station:USF.COMPS:C10:1,2013-11-11T21:35:00Z,27.1690,-82.9260,-1.0,24.235,2 
COMPS,ioos:station:USF.COMPS:C10:1,2013-11-11T22:05:00Z,27.1690,-82.9260,-1.0,24.227,2 
COMPS,ioos:station:USF.COMPS:C10:1,2013-11-11T22:35:00Z,27.1690,-82.9260,-1.0,24.212,2 
COMPS,ioos:station:USF.COMPS:C10:1,2013-11-11T23:05:00Z,27.1690,-82.9260,-1.0,24.199,2 
COMPS,ioos:station:USF.COMPS:C10:1,2013-11-11T23:35:00Z,27.1690,-82.9260,-1.0,24.187,2 
COMPS,ioos:station:USF.COMPS:C10:1,2013-11-12T00:05:00Z,27.1690,-82.9260,-1.0,24.177,2 
COMPS,ioos:station:USF.COMPS:C10:1,2013-11-12T00:35:00Z,27.1690,-82.9260,-1.0,24.165,2 
COMPS,ioos:station:USF.COMPS:C10:1,2013-11-12T01:05:00Z,27.1690,-82.9260,-1.0,24.155,2 
COMPS,ioos:station:USF.COMPS:C10:1,2013-11-12T01:35:00Z,27.1690,-82.9260,-1.0,24.152,2 
COMPS,ioos:station:USF.COMPS:C10:1,2013-11-12T02:05:00Z,27.1690,-82.9260,-1.0,24.143,2 
COMPS,ioos:station:USF.COMPS:C10:1,2013-11-12T02:35:00Z,27.1690,-82.9260,-1.0,24.122,2 
COMPS,ioos:station:USF.COMPS:C10:1,2013-11-12T03:05:00Z,27.1690,-82.9260,-1.0,24.105,2 
COMPS,ioos:station:USF.COMPS:C10:1,2013-11-12T03:35:00Z,27.1690,-82.9260,-1.0,24.088,2 
COMPS,ioos:station:USF.COMPS:C10:1,2013-11-12T04:05:00Z,27.1690,-82.9260,-1.0,24.059,2 
COMPS,ioos:station:USF.COMPS:C10:1,2013-11-12T04:35:00Z,27.1690,-82.9260,-1.0,24.045,2 
COMPS,ioos:station:USF.COMPS:C10:1,2013-11-12T05:05:00Z,27.1690,-82.9260,-1.0,24.016,2 
COMPS,ioos:station:USF.COMPS:C10:1,2013-11-12T05:35:00Z,27.1690,-82.9260,-1.0,23.997,2 
COMPS,ioos:station:USF.COMPS:C10:1,2013-11-12T06:05:00Z,27.1690,-82.9260,-1.0,23.981,2 
COMPS,ioos:station:USF.COMPS:C10:1,2013-11-12T06:35:00Z,27.1690,-82.9260,-1.0,23.968,2 
COMPS,ioos:station:USF.COMPS:C10:1,2013-11-12T07:05:00Z,27.1690,-82.9260,-1.0,23.964,2 
COMPS,ioos:station:USF.COMPS:C10:1,2013-11-12T07:35:00Z,27.1690,-82.9260,-1.0,23.932,2 
COMPS,ioos:station:USF.COMPS:C10:1,2013-11-12T08:05:00Z,27.1690,-82.9260,-1.0,23.944,2 
COMPS,ioos:station:USF.COMPS:C10:1,2013-11-12T08:35:00Z,27.1690,-82.9260,-1.0,23.923,2 
COMPS,ioos:station:USF.COMPS:C10:1,2013-11-12T09:05:00Z,27.1690,-82.9260,-1.0,23.909,2 
COMPS,ioos:station:USF.COMPS:C10:1,2013-11-12T09:35:00Z,27.1690,-82.9260,-1.0,23.898,2 
COMPS,ioos:station:USF.COMPS:C10:1,2013-11-12T10:05:00Z,27.1690,-82.9260,-1.0,23.908,2 
COMPS,ioos:station:USF.COMPS:C10:1,2013-11-12T10:35:00Z,27.1690,-82.9260,-1.0,23.886,2 
COMPS,ioos:station:USF.COMPS:C10:1,2013-11-12T11:05:00Z,27.1690,-82.9260,-1.0,23.873,2 
COMPS,ioos:station:USF.COMPS:C10:1,2013-11-12T11:35:00Z,27.1690,-82.9260,-1.0,23.875,2 
COMPS,ioos:station:USF.COMPS:C10:1,2013-11-12T12:05:00Z,27.1690,-82.9260,-1.0,23.868,2 
COMPS,ioos:station:USF.COMPS:C10:1,2013-11-12T12:35:00Z,27.1690,-82.9260,-1.0,23.857,2 
COMPS,ioos:station:USF.COMPS:C10:1,2013-11-12T13:05:00Z,27.1690,-82.9260,-1.0,23.852,2 
COMPS,ioos:station:USF.COMPS:C10:1,2013-11-12T13:35:00Z,27.1690,-82.9260,-1.0,23.854,2 
COMPS,ioos:station:USF.COMPS:C10:1,2013-11-12T14:05:00Z,27.1690,-82.9260,-1.0,23.861,2 
COMPS,ioos:station:USF.COMPS:C10:1,2013-11-12T14:35:00Z,27.1690,-82.9260,-1.0,23.861,2 
COMPS,ioos:station:USF.COMPS:C10:1,2013-11-12T15:05:00Z,27.1690,-82.9260,-1.0,23.873,2 
COMPS,ioos:station:USF.COMPS:C10:1,2013-11-12T15:35:00Z,27.1690,-82.9260,-1.0,23.875,2 
COMPS,ioos:station:USF.COMPS:C10:1,2013-11-12T16:05:00Z,27.1690,-82.9260,-1.0,23.893,2 
COMPS,ioos:station:USF.COMPS:C10:1,2013-11-12T16:35:00Z,27.1690,-82.9260,-1.0,23.928,2 
COMPS,ioos:station:USF.COMPS:C10:1,2013-11-12T17:05:00Z,27.1690,-82.9260,-1.0,23.993,2 
COMPS,ioos:station:USF.COMPS:C10:1,2013-11-12T17:35:00Z,27.1690,-82.9260,-1.0,24.041,2 
COMPS,ioos:station:USF.COMPS:C10:1,2013-11-12T18:05:00Z,27.1690,-82.9260,-1.0,24.036,2 
COMPS,ioos:station:USF.COMPS:C10:1,2013-11-12T18:35:00Z,27.1690,-82.9260,-1.0,24.036,2 
COMPS,ioos:station:USF.COMPS:C10:1,2013-11-12T19:05:00Z,27.1690,-82.9260,-1.0,24.026,2 
COMPS,ioos:station:USF.COMPS:C10:1,2013-11-12T19:35:00Z,27.1690,-82.9260,-1.0,24.027,2 
COMPS,ioos:station:USF.COMPS:C10:1,2013-11-12T20:05:00Z,27.1690,-82.9260,-1.0,24.042,2 
COMPS,ioos:station:USF.COMPS:C10:1,2013-11-12T20:35:00Z,27.1690,-82.9260,-1.0,24.046,2 
COMPS,ioos:station:USF.COMPS:C10:1,2013-11-12T21:05:00Z,27.1690,-82.9260,-1.0,24.047,2 
COMPS,ioos:station:USF.COMPS:C10:1,2013-11-12T21:35:00Z,27.1690,-82.9260,-1.0,24.047,2 
COMPS,ioos:station:USF.COMPS:C10:1,2013-11-12T22:05:00Z,27.1690,-82.9260,-1.0,24.035,2 
COMPS,ioos:station:USF.COMPS:C10:1,2013-11-12T22:35:00Z,27.1690,-82.9260,-1.0,24.031,2 
COMPS,ioos:station:USF.COMPS:C10:1,2013-11-12T23:05:00Z,27.1690,-82.9260,-1.0,24.028,2 
COMPS,ioos:station:USF.COMPS:C10:1,2013-11-12T23:35:00Z,27.1690,-82.9260,-1.0,24.022,2 
COMPS,ioos:station:USF.COMPS:C10:1,2013-11-18T00:05:00Z,27.1690,-82.9260,-1.0,23.556,2 
COMPS,ioos:station:USF.COMPS:C10:1,2013-11-18T00:35:00Z,27.1690,-82.9260,-1.0,23.554,2 
COMPS,ioos:station:USF.COMPS:C10:1,2013-11-18T01:05:00Z,27.1690,-82.9260,-1.0,23.543,2 
COMPS,ioos:station:USF.COMPS:C10:1,2013-11-18T01:35:00Z,27.1690,-82.9260,-1.0,23.506,2 
COMPS,ioos:station:USF.COMPS:C10:1,2013-11-18T02:05:00Z,27.1690,-82.9260,-1.0,23.519,2 
COMPS,ioos:station:USF.COMPS:C10:1,2013-11-18T02:35:00Z,27.1690,-82.9260,-1.0,23.542,2 
COMPS,ioos:station:USF.COMPS:C10:1,2013-11-18T03:05:00Z,27.1690,-82.9260,-1.0,23.556,2 
COMPS,ioos:station:USF.COMPS:C10:1,2013-11-18T03:35:00Z,27.1690,-82.9260,-1.0,23.56,2 
COMPS,ioos:station:USF.COMPS:C10:1,2013-11-18T04:05:00Z,27.1690,-82.9260,-1.0,23.551,2 
COMPS,ioos:station:USF.COMPS:C10:1,2013-11-18T04:35:00Z,27.1690,-82.9260,-1.0,23.529,2 
COMPS,ioos:station:USF.COMPS:C10:1,2013-11-18T05:05:00Z,27.1690,-82.9260,-1.0,23.54,2 
COMPS,ioos:station:USF.COMPS:C10:1,2013-11-18T05:35:00Z,27.1690,-82.9260,-1.0,23.525,2 
COMPS,ioos:station:USF.COMPS:C10:1,2013-11-18T06:05:00Z,27.1690,-82.9260,-1.0,23.513,2 
COMPS,ioos:station:USF.COMPS:C10:1,2013-11-18T06:35:00Z,27.1690,-82.9260,-1.0,23.469,2 
COMPS,ioos:station:USF.COMPS:C10:1,2013-11-18T07:05:00Z,27.1690,-82.9260,-1.0,23.445,2 
COMPS,ioos:station:USF.COMPS:C10:1,2013-11-18T07:35:00Z,27.1690,-82.9260,-1.0,23.442,2 
COMPS,ioos:station:USF.COMPS:C10:1,2013-11-18T08:05:00Z,27.1690,-82.9260,-1.0,23.393,2 
COMPS,ioos:station:USF.COMPS:C10:1,2013-11-18T08:35:00Z,27.1690,-82.9260,-1.0,23.414,2 
COMPS,ioos:station:USF.COMPS:C10:1,2013-11-18T09:05:00Z,27.1690,-82.9260,-1.0,23.443,2 
COMPS,ioos:station:USF.COMPS:C10:1,2013-11-18T09:35:00Z,27.1690,-82.9260,-1.0,23.449,2 
COMPS,ioos:station:USF.COMPS:C10:1,2013-11-18T10:05:00Z,27.1690,-82.9260,-1.0,23.435,2 
COMPS,ioos:station:USF.COMPS:C10:1,2013-11-18T10:35:00Z,27.1690,-82.9260,-1.0,23.468,2 
COMPS,ioos:station:USF.COMPS:C10:1,2013-11-18T11:05:00Z,27.1690,-82.9260,-1.0,23.432,2 
COMPS,ioos:station:USF.COMPS:C10:1,2013-11-18T11:35:00Z,27.1690,-82.9260,-1.0,23.352,2 
COMPS,ioos:station:USF.COMPS:C10:1,2013-11-18T12:05:00Z,27.1690,-82.9260,-1.0,23.274,2 
COMPS,ioos:station:USF.COMPS:C10:1,2013-11-18T12:35:00Z,27.1690,-82.9260,-1.0,23.26,2 
COMPS,ioos:station:USF.COMPS:C10:1,2013-11-18T13:05:00Z,27.1690,-82.9260,-1.0,23.227,2 
COMPS,ioos:station:USF.COMPS:C10:1,2013-11-18T13:35:00Z,27.1690,-82.9260,-1.0,23.24,2 
COMPS,ioos:station:USF.COMPS:C10:1,2013-11-18T14:05:00Z,27.1690,-82.9260,-1.0,23.277,2 
COMPS,ioos:station:USF.COMPS:C10:1,2013-11-18T14:35:00Z,27.1690,-82.9260,-1.0,23.317,2 
COMPS,ioos:station:USF.COMPS:C10:1,2013-11-18T15:05:00Z,27.1690,-82.9260,-1.0,23.343,2 
COMPS,ioos:station:USF.COMPS:C10:1,2013-11-18T15:35:00Z,27.1690,-82.9260,-1.0,23.43,2 
COMPS,ioos:station:USF.COMPS:C10:1,2013-11-18T16:05:00Z,27.1690,-82.9260,-1.0,23.501,2 
COMPS,ioos:station:USF.COMPS:C10:1,2013-11-18T16:35:00Z,27.1690,-82.9260,-1.0,23.572,2 
COMPS,ioos:station:USF.COMPS:C10:1,2013-11-18T17:05:00Z,27.1690,-82.9260,-1.0,23.685,2 
COMPS,ioos:station:USF.COMPS:C10:1,2013-11-18T17:35:00Z,27.1690,-82.9260,-1.0,23.781,2 
COMPS,ioos:station:USF.COMPS:C10:1,2013-11-18T18:05:00Z,27.1690,-82.9260,-1.0,23.954,2 
COMPS,ioos:station:USF.COMPS:C10:1,2013-11-18T18:35:00Z,27.1690,-82.9260,-1.0,23.932,2 
COMPS,ioos:station:USF.COMPS:C10:1,2013-11-18T19:05:00Z,27.1690,-82.9260,-1.0,23.977,2 
COMPS,ioos:station:USF.COMPS:C10:1,2013-11-18T19:35:00Z,27.1690,-82.9260,-1.0,23.987,2 
COMPS,ioos:station:USF.COMPS:C10:1,2013-11-18T20:05:00Z,27.1690,-82.9260,-1.0,24.06,2 
COMPS,ioos:station:USF.COMPS:C10:1,2013-11-18T20:35:00Z,27.1690,-82.9260,-1.0,24.088,2 
COMPS,ioos:station:USF.COMPS:C10:1,2013-11-18T21:05:00Z,27.1690,-82.9260,-1.0,24.23,2 
COMPS,ioos:station:USF.COMPS:C10:1,2013-11-18T21:35:00Z,27.1690,-82.9260,-1.0,24.012,2 
COMPS,ioos:station:USF.COMPS:C10:1,2013-11-18T22:05:00Z,27.1690,-82.9260,-1.0,23.903,2 
COMPS,ioos:station:USF.COMPS:C10:1,2013-11-18T22:35:00Z,27.1690,-82.9260,-1.0,23.873,2 
COMPS,ioos:station:USF.COMPS:C10:1,2013-11-18T23:05:00Z,27.1690,-82.9260,-1.0,23.773,2 
COMPS,ioos:station:USF.COMPS:C10:1,2013-11-18T23:35:00Z,27.1690,-82.9260,-1.0,23.705,2 
 
DISCLAIMER: The Gulf of Mexico Coastal and Ocean Observing (GCOOS) Data Portal aggregates data from the regional data providers for the convenience of all data users. Data published on this website should not be used for navigation or certain other uses as we cannot guarantee data accuracy or availability. The data and delivery services are provided 'as is' without warranty of any kind. Data Source: Gulf of Mexico Coastal Ocean Observing System Data Portal (http://data.gcoos.org/) 
